Location: Monroe
(41.9160°N, 83.3980°W)
Time: 22:13:13
(UTC-04:00)

Amateur Radio Satellites - All Passes

Search period start: 20 October 2014 21:43
Search period end: 21 October 2014 21:43
Location: Monroe, 41.9160°N, 83.3980°W

Satellite Date Start Highest point End Downlink Frequencies (MHz)
Time Altitude Azimuth
AO-40 20 Oct 21:47:27 23:49:59 28° 213° (SSW) 03:50:59 Beacon 2401.320
ZACube-1 20 Oct 21:51:39 21:54:32 17° 64° (ENE) 21:57:25 437.345 MHz
RS-15 20 Oct 21:54:50 22:01:22 18° 99° (E) 22:07:50 29.354 - 29.394 USB, Beacon 29.352 USB
UKube-1 20 Oct 22:04:06 22:08:21 55° 73° (ENE) 22:12:37 145.840 MHz, 145.915 MHz
SO-50 20 Oct 22:33:17 22:37:18 25° 44° (NE) 22:41:21 436.795 FM
FUNcube-1 20 Oct 22:35:45 22:40:07 45° 72° (ENE) 22:44:28 145.950 - 145.970 MHz USB
Oscar 11 20 Oct 22:49:54 22:54:09 54° 260° (W) 22:58:25 145.825 FM, Beacon 2401.500 USB
ISS 20 Oct 22:56:04 22:58:09 16° 229° (SW) 23:00:13 145.800 FM
HO-68 20 Oct 23:11:53 23:17:11 22° 268° (W) 23:22:32 435.675 MHz FM
KITSAT 1 20 Oct 23:18:38 23:26:44 80° 242° (WSW) 23:34:47 435.175 FM
ZACube-1 20 Oct 23:25:59 23:30:30 54° 260° (W) 23:35:00 437.345 MHz
UKube-1 20 Oct 23:42:44 23:44:52 13° 269° (W) 23:47:02 145.840 MHz, 145.915 MHz
RS-15 21 Oct 00:00:51 00:11:50 80° 119° (ESE) 00:22:46 29.354 - 29.394 USB, Beacon 29.352 USB
SO-50 21 Oct 00:13:26 00:18:06 49° 242° (WSW) 00:22:47 436.795 FM
FUNcube-1 21 Oct 00:13:29 00:16:41 19° 268° (W) 00:19:53 145.950 - 145.970 MHz USB
UOSAT-12 21 Oct 00:21:37 00:25:38 26° 45° (NE) 00:29:35 437.025 FM, 437.400 FM
KITSAT 1 21 Oct 01:16:34 01:20:50 15° 260° (W) 01:25:06 435.175 FM
MaSat-1 21 Oct 01:43:49 01:48:07 85° 296° (WNW) 01:52:02 437.345 MHz
Oscar 19 21 Oct 01:45:39 01:47:01 11° 88° (E) 01:48:24 437.125 CW, 437.150 USB
UOSAT-12 21 Oct 02:01:29 02:05:57 43° 243° (WSW) 02:10:19 437.025 FM, 437.400 FM
RS-15 21 Oct 02:15:35 02:25:22 36° 325° (NW) 02:35:15 29.354 - 29.394 USB, Beacon 29.352 USB
JAS-1B 21 Oct 02:27:41 02:33:23 30° 97° (E) 02:39:53 435.800 - 435.900 CW/SSB
Oscar 16 21 Oct 02:28:03 02:32:34 31° 96° (E) 02:37:03 437.025 USB, Beacon 2401.1428
Uribyol 2 21 Oct 02:40:35 02:43:57 17° 91° (E) 02:47:18 436.500 FM
ITAMSAT 1 21 Oct 02:45:22 02:48:52 18° 92° (E) 02:52:22 435.822 SSB
AO-Echo 21 Oct 02:58:03 03:02:47 32° 96° (E) 03:07:30 ?
Oscar 19 21 Oct 03:21:52 03:27:00 85° 285° (WNW) 03:32:07 437.125 CW, 437.150 USB
AO-27 21 Oct 03:28:41 03:33:44 46° 99° (E) 03:38:44 436.795 MHz FM
Oscar 16 21 Oct 04:07:21 04:11:53 33° 293° (WNW) 04:16:24 437.025 USB, Beacon 2401.1428
Gurwin Techsat 1B 21 Oct 04:17:58 04:23:18 70° 102° (ESE) 04:28:35 435.225 FM
JAS-1B 21 Oct 04:18:02 04:24:06 48° 290° (WNW) 04:31:14 435.800 - 435.900 CW/SSB
Uribyol 2 21 Oct 04:18:41 04:23:49 59° 288° (WNW) 04:28:54 436.500 FM
ITAMSAT 1 21 Oct 04:23:36 04:28:43 57° 288° (WNW) 04:33:49 435.822 SSB
PCSat 21 Oct 04:25:54 04:29:19 17° 105° (ESE) 04:32:44 145.825 MHz
TMSAT-1 21 Oct 04:32:03 04:37:22 70° 102° (ESE) 04:42:38 436.925 FM
RS-15 21 Oct 04:34:25 04:42:16 21° 360° (N) 04:50:13 29.354 - 29.394 USB, Beacon 29.352 USB
AO-Echo 21 Oct 04:36:47 04:41:29 34° 292° (WNW) 04:46:13 ?
Uosat F 21 Oct 04:41:30 04:43:13 12° 89° (E) 04:44:55 435.120 FM
Oscar 19 21 Oct 05:03:55 05:05:32 11° 302° (WNW) 05:07:09 437.125 CW, 437.150 USB
AO-27 21 Oct 05:08:52 05:12:56 23° 296° (WNW) 05:16:59 436.795 MHz FM
OPAL 21 Oct 05:11:25 05:16:16 43° 67° (ENE) 05:21:05 ?
JAS-2 21 Oct 05:22:41 05:26:18 14° 85° (E) 05:29:55 435.800 - 435.900 CW/SSB, 435.910 FM
AO-7 21 Oct 05:32:30 05:40:33 51° 102° (ESE) 05:48:35 29.400 - 29.500 MHz
Sapphire 21 Oct 05:43:40 05:49:03 75° 117° (ESE) 05:54:29 437.095 MHz 1200 baud AX-25 AFSK
Gurwin Techsat 1B 21 Oct 05:59:24 06:02:40 17° 299° (WNW) 06:05:56 435.225 FM
PCSat 21 Oct 06:06:45 06:12:08 67° 302° (WNW) 06:17:33 145.825 MHz
TMSAT-1 21 Oct 06:13:26 06:16:41 17° 299° (WNW) 06:19:56 436.925 FM
Uosat F 21 Oct 06:17:31 06:22:35 81° 286° (WNW) 06:27:38 435.120 FM
STRAND 1 21 Oct 06:49:16 06:53:53 35° 68° (ENE) 06:58:31 ?
RS-15 21 Oct 06:49:22 06:59:15 35° 34° (NE) 07:09:25 29.354 - 29.394 USB, Beacon 29.352 USB
OPAL 21 Oct 06:51:08 06:55:16 24° 263° (W) 06:59:25 ?
Hamsat 21 Oct 07:00:52 07:04:51 41° 98° (E) 07:08:49 145.90 MHz
JAS-2 21 Oct 07:04:40 07:12:22 73° 102° (ESE) 07:20:13 435.800 - 435.900 CW/SSB, 435.910 FM
AO-7 21 Oct 07:25:39 07:33:06 39° 300° (WNW) 07:40:34 29.400 - 29.500 MHz
Sapphire 21 Oct 07:29:10 07:33:04 20° 317° (NW) 07:37:01 437.095 MHz 1200 baud AX-25 AFSK
PCSat 21 Oct 07:53:57 07:56:37 14° 323° (NW) 07:59:17 145.825 MHz
SO-67 21 Oct 07:59:16 08:01:59 21° 95° (E) 08:04:41 435.3500 MHz FM
Uosat F 21 Oct 07:59:20 08:00:31 11° 303° (WNW) 08:01:43 435.120 FM
Saudisat 1A 21 Oct 08:07:23 08:07:49 10° 107° (ESE) 08:08:15 436.775 MHz
STRAND 1 21 Oct 08:28:41 08:33:05 29° 264° (W) 08:37:31 ?
Hamsat 21 Oct 08:37:43 08:40:29 18° 294° (WNW) 08:43:16 145.90 MHz
JAS-2 21 Oct 08:50:41 08:56:43 27° 299° (WNW) 09:02:55 435.800 - 435.900 CW/SSB, 435.910 FM
HO-68 21 Oct 08:53:02 08:54:53 11° 86° (E) 08:56:44 435.675 MHz FM
RS-15 21 Oct 09:01:47 09:12:59 84° 240° (WSW) 09:24:40 29.354 - 29.394 USB, Beacon 29.352 USB
SO-67 21 Oct 09:32:14 09:34:52 21° 290° (WNW) 09:37:31 435.3500 MHz FM
Saudisat 1A 21 Oct 09:42:18 09:46:41 83° 304° (WNW) 09:51:07 436.775 MHz
MaSat-1 21 Oct 09:57:03 09:57:26 10° 49° (NE) 09:57:50 437.345 MHz
HO-68 21 Oct 10:36:35 10:43:47 71° 104° (ESE) 10:50:57 435.675 MHz FM
Oscar 11 21 Oct 10:37:32 10:41:08 26° 95° (E) 10:44:43 145.825 FM, Beacon 2401.500 USB
PANSAT 21 Oct 11:08:42 11:09:18 10° 175° (S) 11:09:53 not established
ZACube-1 21 Oct 11:15:27 11:19:09 27° 95° (E) 11:22:45 437.345 MHz
RS-15 21 Oct 11:16:14 11:23:43 21° 260° (W) 11:31:26 29.354 - 29.394 USB, Beacon 29.352 USB
Saudisat 1A 21 Oct 11:24:44 11:26:57 14° 323° (NW) 11:29:11 436.775 MHz
UKube-1 21 Oct 11:27:51 11:32:15 82° 285° (WNW) 11:36:36 145.840 MHz, 145.915 MHz
MaSat-1 21 Oct 11:31:04 11:33:21 26° 251° (WSW) 11:35:28 437.345 MHz
KITSAT 1 21 Oct 11:57:26 12:00:38 13° 98° (E) 12:03:49 435.175 FM
FUNcube-1 21 Oct 12:00:46 12:05:05 89° 103° (ESE) 12:09:17 145.950 - 145.970 MHz USB
Oscar 11 21 Oct 12:13:36 12:17:17 28° 291° (WNW) 12:20:57 145.825 FM, Beacon 2401.500 USB
HO-68 21 Oct 12:25:19 12:30:51 25° 303° (WNW) 12:36:21 435.675 MHz FM
Sapphire 21 Oct 12:49:44 12:52:14 13° 37° (NE) 12:54:45 437.095 MHz 1200 baud AX-25 AFSK
ZACube-1 21 Oct 12:51:54 12:55:28 26° 292° (WNW) 12:58:56 437.345 MHz
Oscar 19 21 Oct 13:01:50 13:05:23 19° 62° (ENE) 13:08:55 437.125 CW, 437.150 USB
PCSat 21 Oct 13:11:55 13:15:45 19° 43° (NE) 13:19:35 145.825 MHz
AO-27 21 Oct 13:13:12 13:13:43 10° 56° (NE) 13:14:14 436.795 MHz FM
JAS-1B 21 Oct 13:15:49 13:20:23 23° 63° (ENE) 13:24:46 435.800 - 435.900 CW/SSB
Oscar 16 21 Oct 13:45:12 13:50:08 47° 70° (ENE) 13:55:04 437.025 USB, Beacon 2401.1428
KITSAT 1 21 Oct 13:46:33 13:54:34 71° 117° (ESE) 14:02:36 435.175 FM
Uribyol 2 21 Oct 13:58:28 14:02:51 28° 65° (ENE) 14:07:15 436.500 FM
ISS 21 Oct 14:01:53 14:04:05 17° 132° (SE) 14:06:18 145.800 FM
Gurwin Techsat 1B 21 Oct 14:02:24 14:05:27 16° 60° (ENE) 14:08:31 435.225 FM
ITAMSAT 1 21 Oct 14:03:26 14:07:52 29° 66° (ENE) 14:12:19 435.822 SSB
AO-Echo 21 Oct 14:11:28 14:15:58 40° 69° (ENE) 14:20:37 ?
TMSAT-1 21 Oct 14:16:12 14:19:13 16° 60° (ENE) 14:22:15 436.925 FM
SO-50 21 Oct 14:28:28 14:32:48 51° 118° (ESE) 14:37:16 436.795 FM
Sapphire 21 Oct 14:31:22 14:36:47 64° 58° (ENE) 14:42:09 437.095 MHz 1200 baud AX-25 AFSK
Oscar 19 21 Oct 14:39:12 14:44:16 57° 259° (W) 14:49:21 437.125 CW, 437.150 USB
AO-7 21 Oct 14:43:42 14:48:28 17° 47° (NE) 14:53:13 29.400 - 29.500 MHz
AO-27 21 Oct 14:47:06 14:52:17 73° 74° (ENE) 14:57:31 436.795 MHz FM
PCSat 21 Oct 14:54:22 14:59:49 79° 242° (WSW) 15:05:13 145.825 MHz
JAS-1B 21 Oct 15:04:52 15:10:50 49° 260° (W) 15:16:21 435.800 - 435.900 CW/SSB
Oscar 16 21 Oct 15:25:48 15:29:42 21° 267° (W) 15:33:37 437.025 USB, Beacon 2401.1428
ISS 21 Oct 15:37:11 15:40:29 60° 328° (NNW) 15:43:48 145.800 FM
Uribyol 2 21 Oct 15:37:20 15:42:09 38° 262° (W) 15:47:01 436.500 FM
Gurwin Techsat 1B 21 Oct 15:39:29 15:44:47 75° 257° (WSW) 15:50:07 435.225 FM
Oscar 10/S400 21 Oct 15:39:42 15:57:08 45° 157° (SSE) 16:27:57 145.825 - 145.975 CW/USB, Beacon 145.810 USB
ITAMSAT 1 21 Oct 15:42:28 15:47:13 36° 263° (W) 15:52:02 435.822 SSB
KITSAT 1 21 Oct 15:43:35 15:50:38 32° 318° (NW) 15:57:43 435.175 FM
AO-Echo 21 Oct 15:51:05 15:54:53 23° 267° (W) 15:58:49 ?
TMSAT-1 21 Oct 15:53:12 15:58:30 75° 257° (WSW) 16:03:50 436.925 FM
Uosat F 21 Oct 15:54:23 15:57:48 19° 62° (ENE) 16:01:14 435.120 FM
SO-50 21 Oct 16:10:03 16:13:38 23° 317° (NW) 16:17:19 436.795 FM
UOSAT-12 21 Oct 16:12:28 16:16:57 52° 118° (ESE) 16:21:32 437.025 FM, 437.400 FM
Sapphire 21 Oct 16:16:03 16:19:39 18° 255° (WSW) 16:23:14 437.095 MHz 1200 baud AX-25 AFSK
AO-27 21 Oct 16:29:46 16:32:20 14° 270° (W) 16:34:55 436.795 MHz FM
Saudisat 1A 21 Oct 16:30:31 16:32:51 14° 37° (NE) 16:35:11 436.775 MHz
AO-7 21 Oct 16:31:36 16:39:48 70° 68° (ENE) 16:48:01 29.400 - 29.500 MHz
ISS 21 Oct 17:15:15 17:17:42 19° 347° (NNW) 17:20:09 145.800 FM
JAS-2 21 Oct 17:18:18 17:23:20 31° 62° (ENE) 17:28:55 435.800 - 435.900 CW/SSB, 435.910 FM
Uosat F 21 Oct 17:31:13 17:36:08 56° 259° (W) 17:41:06 435.120 FM
KITSAT 1 21 Oct 17:45:42 17:49:09 13° 347° (NNW) 17:52:36 435.175 FM
UOSAT-12 21 Oct 17:53:40 17:57:24 23° 317° (NW) 18:01:10 437.025 FM, 437.400 FM
Hamsat 21 Oct 17:54:37 17:58:20 31° 70° (ENE) 18:02:03 145.90 MHz
Saudisat 1A 21 Oct 18:08:39 18:13:06 85° 57° (ENE) 18:17:31 436.775 MHz
AO-7 21 Oct 18:26:37 18:33:11 26° 266° (W) 18:39:49 29.400 - 29.500 MHz
ISS 21 Oct 18:53:06 18:55:21 17° 8° (N) 18:57:35 145.800 FM
OPAL 21 Oct 18:59:25 19:04:26 85° 106° (ESE) 19:09:22 ?
STRAND 1 21 Oct 19:02:04 19:03:18 11° 88° (E) 19:04:33 ?
JAS-2 21 Oct 19:02:43 19:08:09 43° 264° (W) 19:14:17 435.800 - 435.900 CW/SSB, 435.910 FM
HO-68 21 Oct 19:24:08 19:25:56 11° 47° (NE) 19:27:45 435.675 MHz FM
Hamsat 21 Oct 19:31:00 19:34:19 22° 266° (W) 19:37:37 145.90 MHz
KITSAT 1 21 Oct 19:44:47 19:48:52 14° 18° (NNE) 19:52:56 435.175 FM
SO-67 21 Oct 20:04:11 20:07:34 61° 260° (W) 20:10:59 435.3500 MHz FM
ISS 21 Oct 20:29:31 20:32:43 40° 27° (NNE) 20:35:53 145.800 FM
STRAND 1 21 Oct 20:37:58 20:43:10 87° 285° (WNW) 20:48:18 ?
OPAL 21 Oct 20:40:25 20:42:36 13° 304° (WNW) 20:44:46 ?
HO-68 21 Oct 21:05:10 21:12:05 55° 67° (ENE) 21:19:02 435.675 MHz FM
SO-50 21 Oct 21:21:09 21:22:36 11° 32° (NNE) 21:24:02 436.795 FM
RS-15 21 Oct 21:22:58 21:26:02 12° 95° (E) 21:29:04 29.354 - 29.394 USB, Beacon 29.352 USB
Oscar 11 21 Oct 21:33:14 21:36:35 22° 67° (ENE) 21:39:56 145.825 FM, Beacon 2401.500 USB
